DL5ARK Weather Reports


Display with metric or nautical units.
time (UTC)temp
F
wind
direction
speed
MPH
gust
MPH
rain 1hr
in
rain 24hr
in
rain mn
in
humidity
%
barometer
mb
20260502203348 49 67 0.0 0.0 0.00 0.00 0.00 60 1004.7
20260502203046 50 67 0.0 0.0 0.00 0.00 0.00 60 1004.7
20260502202747 50 337 0.0 0.0 0.00 0.00 0.00 59 1004.7
20260502202447 50 67 0.0 0.0 0.00 0.00 0.00 59 1005.0
20260502202148 51 67 0.0 0.0 0.00 0.00 0.00 60 1005.0
20260502201850 51 337 0.0 0.0 0.00 0.00 0.00 59 1005.0
20260502201547 51 67 0.0 0.0 0.00 0.00 0.00 60 1005.0
20260502201248 52 337 0.0 0.0 0.00 0.00 0.00 60 1005.0
20260502200948 51 67 0.0 0.0 0.00 0.00 0.00 59 1005.0
20260502200648 51 90 0.0 0.0 0.00 0.00 0.00 59 1005.0
20260502200347 51 90 0.0 0.0 0.00 0.00 0.00 58 1005.0
20260502195747 53 315 0.0 0.0 0.00 0.00 0.00 58 1004.7
20260502195450 53 315 0.0 0.0 0.00 0.00 0.00 58 1005.0
20260502195146 53 225 0.0 0.0 0.00 0.00 0.00 58 1005.0
20260502194848 53 337 0.0 0.0 0.00 0.00 0.00 58 1005.0
20260502194247 53 337 0.0 0.0 0.00 0.00 0.00 59 1005.0
20260502193950 53 45 0.0 0.0 0.00 0.00 0.00 58 1005.0
20260502193647 53 45 0.0 0.0 0.00 0.00 0.00 58 1004.7
20260502193347 53 45 0.0 0.0 0.00 0.00 0.00 57 1005.0
20260502193048 54 45 0.0 0.0 0.00 0.00 0.00 55 1004.7
20260502192747 54 45 0.0 0.0 0.00 0.00 0.00 56 1004.7
20260502192450 54 45 0.0 0.0 0.00 0.00 0.00 56 1004.7
20260502192146 54 45 0.0 0.0 0.00 0.00 0.00 55 1004.7
20260502191847 56 45 0.0 0.0 0.00 0.00 0.00 56 1004.7
20260502191548 56 45 0.0 0.0 0.00 0.00 0.00 56 1004.7
20260502191247 56 45 0.0 0.0 0.00 0.00 0.00 56 1004.7
20260502190947 56 45 0.0 0.0 0.00 0.00 0.00 56 1004.7
20260502190347 57 337 0.0 0.0 0.00 0.00 0.00 54 1004.7
20260502190047 57 45 0.0 0.0 0.00 0.00 0.00 53 1004.7
20260502185448 57 45 0.0 0.0 0.00 0.00 0.00 53 1004.7
20260502185148 58 45 0.0 0.0 0.00 0.00 0.00 53 1004.7
20260502184850 59 337 0.0 0.0 0.00 0.00 0.00 54 1004.7
20260502184550 60 45 0.0 0.0 0.00 0.00 0.00 54 1004.7
20260502184247 60 337 0.0 0.0 0.00 0.00 0.00 54 1004.7
20260502183948 60 337 0.0 0.0 0.00 0.00 0.00 53 1004.7
20260502183647 61 45 0.0 0.0 0.00 0.00 0.00 54 1004.7
20260502183348 61 337 0.0 0.0 0.00 0.00 0.00 54 1004.7
20260502183047 61 45 0.0 0.0 0.00 0.00 0.00 54 1004.7
20260502182748 62 45 0.0 0.0 0.00 0.00 0.00 54 1004.7
20260502182450 63 337 0.0 0.0 0.00 0.00 0.00 53 1004.7
20260502182147 64 45 0.0 0.0 0.00 0.00 0.00 53 1004.7
20260502181847 64 45 0.0 0.0 0.00 0.00 0.00 52 1004.7
20260502181548 65 45 0.0 0.0 0.00 0.00 0.00 53 1004.7
20260502181247 66 337 0.0 0.0 0.00 0.00 0.00 51 1004.7
20260502180647 66 337 0.0 0.0 0.00 0.00 0.00 51 1004.7
20260502180348 67 45 0.0 0.0 0.00 0.00 0.00 50 1004.7
20260502170347 75 90 0.0 0.0 0.00 0.00 0.00 40 1004.7
20260502164248 77 180 1.0 1.0 0.00 0.00 0.00 33 1005.2
20260502163948 77 180 1.0 1.0 0.00 0.00 0.00 32 1005.2
20260502163348 77 180 0.0 0.0 0.00 0.00 0.00 32 1005.2
20260502163048 77 225 0.0 0.0 0.00 0.00 0.00 32 1005.2
20260502162748 77 180 3.0 3.0 0.00 0.00 0.00 31 1005.2
20260502162447 77 180 1.0 2.0 0.00 0.00 0.00 31 1005.2
20260502162148 78 180 3.0 3.0 0.00 0.00 0.00 32 1005.2
20260502161848 79 337 0.0 0.0 0.00 0.00 0.00 32 1005.2
20260502161250 79 180 2.0 2.0 0.00 0.00 0.00 32 1005.5
20260502160947 79 180 1.0 2.0 0.00 0.00 0.00 32 1005.7
20260502152147 79 225 4.0 4.0 0.00 0.00 0.00 32 1006.0
20260502151848 79 180 4.0 4.0 0.00 0.00 0.00 31 1006.0
20260502151547 78 180 3.0 3.0 0.00 0.00 0.00 31 1006.2
20260502151247 78 180 4.0 4.0 0.00 0.00 0.00 31 1006.0
20260502150647 78 180 3.0 3.0 0.00 0.00 0.00 31 1006.0
20260502150347 78 180 4.0 4.0 0.00 0.00 0.00 31 1006.2
20260502130647 77 180 1.0 1.0 0.00 0.00 0.00 32 1007.7
20260502130348 77 315 0.0 0.0 0.00 0.00 0.00 32 1007.7
20260502123650 76 247 3.0 3.0 0.00 0.00 0.00 34 1008.2
20260502123347 76 112 2.0 2.0 0.00 0.00 0.00 33 1008.2
20260502123047 74 112 0.0 0.0 0.00 0.00 0.00 32 1008.2
20260502122747 75 337 3.0 3.0 0.00 0.00 0.00 33 1008.2
20260502122448 75 90 2.0 2.0 0.00 0.00 0.00 32 1008.2
20260502122148 75 337 1.0 1.0 0.00 0.00 0.00 32 1008.5
20260502121847 75 225 3.0 3.0 0.00 0.00 0.00 35 1008.5
20260502121551 74 180 2.0 2.0 0.00 0.00 0.00 32 1008.5
20260502121248 74 135 5.0 5.0 0.00 0.00 0.00 31 1008.5
20260502120948 74 112 5.0 5.0 0.00 0.00 0.00 32 1008.7
20260502120646 75 202 1.0 1.0 0.00 0.00 0.00 36 1008.7
20260502120348 75 202 4.0 4.0 0.00 0.00 0.00 36 1008.7
20260502115748 74 135 4.0 4.0 0.00 0.00 0.00 36 1008.7
20260502115147 74 180 2.0 2.0 0.00 0.00 0.00 38 1008.9
20260502114848 73 337 3.0 3.0 0.00 0.00 0.00 32 1008.9
20260502114547 73 135 3.0 3.0 0.00 0.00 0.00 34 1008.7
20260502114247 73 180 8.0 8.0 0.00 0.00 0.00 34 1008.9
20260502113947 74 90 3.0 3.0 0.00 0.00 0.00 34 1008.9
20260502113648 73 337 3.0 3.0 0.00 0.00 0.00 34 1009.2
20260502113047 73 225 4.0 4.0 0.00 0.00 0.00 37 1009.2
20260502112747 73 180 1.0 1.0 0.00 0.00 0.00 36 1009.2
20260502112448 73 180 4.0 4.0 0.00 0.00 0.00 37 1009.2
20260502112147 73 180 5.0 5.0 0.00 0.00 0.00 39 1009.2
20260502111548 73 180 2.0 2.0 0.00 0.00 0.00 36 1009.4
20260502111248 73 202 1.0 2.0 0.00 0.00 0.00 38 1009.4
20260502110947 73 337 3.0 3.0 0.00 0.00 0.00 41 1009.7
20260502110648 73 180 2.0 2.0 0.00 0.00 0.00 40 1009.7
20260502110348 73 225 3.0 3.0 0.00 0.00 0.00 40 1009.7
20260502110048 72 135 4.0 4.0 0.00 0.00 0.00 38 1009.7
20260502105750 72 112 5.0 5.0 0.00 0.00 0.00 38 1009.7
20260502105447 72 157 4.0 4.0 0.00 0.00 0.00 42 1009.7
20260502105148 72 180 4.0 4.0 0.00 0.00 0.00 39 1009.7
20260502104847 71 112 5.0 5.0 0.00 0.00 0.00 36 1009.7
20260502104547 72 180 6.0 6.0 0.00 0.00 0.00 40 1009.7
20260502104247 72 225 4.0 4.0 0.00 0.00 0.00 43 1009.7
20260502103647 71 225 6.0 6.0 0.00 0.00 0.00 41 1009.9
20260502103347 71 90 4.0 4.0 0.00 0.00 0.00 41 1009.9
20260502103050 71 337 3.0 3.0 0.00 0.00 0.00 38 1009.9
20260502102747 71 157 4.0 4.0 0.00 0.00 0.00 38 1010.2
20260502102448 71 135 3.0 3.0 0.00 0.00 0.00 39 1010.2
20260502102148 70 157 1.0 1.0 0.00 0.00 0.00 39 1010.2
20260502101548 70 225 3.0 3.0 0.00 0.00 0.00 42 1010.2
20260502101247 70 180 3.0 3.0 0.00 0.00 0.00 44 1010.2
20260502100948 69 157 0.0 0.0 0.00 0.00 0.00 42 1010.4
20260502100648 70 180 5.0 5.0 0.00 0.00 0.00 44 1010.2
20260502100350 70 180 3.0 3.0 0.00 0.00 0.00 45 1010.4
20260502090947 66 157 2.0 2.0 0.00 0.00 0.00 47 1010.9
20260502090648 66 135 1.0 1.0 0.00 0.00 0.00 49 1010.9
20260502090348 66 112 1.0 1.0 0.00 0.00 0.00 48 1011.2
20260502071247 61 337 0.0 0.0 0.00 0.00 0.00 53 1011.7
20260502070946 61 112 0.0 0.0 0.00 0.00 0.00 56 1011.7
20260502070348 61 90 0.0 0.0 0.00 0.00 0.00 58 1011.9
20260502070047 61 90 0.0 0.0 0.00 0.00 0.00 58 1011.9
20260502065747 60 90 0.0 0.0 0.00 0.00 0.00 59 1011.9
20260502065447 59 90 0.0 0.0 0.00 0.00 0.00 60 1011.9
20260502065148 59 202 0.0 0.0 0.00 0.00 0.00 60 1011.9
20260502064548 57 180 0.0 0.0 0.00 0.00 0.00 63 1011.9
20260502064247 57 180 0.0 0.0 0.00 0.00 0.00 64 1011.9
20260502063948 57 90 0.0 0.0 0.00 0.00 0.00 65 1011.9
20260502063648 56 90 0.0 0.0 0.00 0.00 0.00 66 1012.2
20260502063348 56 90 0.0 0.0 0.00 0.00 0.00 66 1011.9
20260502062748 55 67 0.0 0.0 0.00 0.00 0.00 67 1011.9
20260502062448 54 67 0.0 0.0 0.00 0.00 0.00 67 1011.9
20260502062147 53 67 0.0 0.0 0.00 0.00 0.00 68 1011.9
20260502061848 52 337 0.0 0.0 0.00 0.00 0.00 68 1011.9
20260502061547 52 67 0.0 0.0 0.00 0.00 0.00 69 1011.7
20260502061248 51 67 0.0 0.0 0.00 0.00 0.00 69 1011.9
20260502060647 51 337 0.0 0.0 0.00 0.00 0.00 70 1011.9
20260502060347 50 90 0.0 0.0 0.00 0.00 0.00 70 1011.9
20260502060047 50 90 0.0 0.0 0.00 0.00 0.00 71 1012.2
20260502055747 49 67 0.0 0.0 0.00 0.00 0.00 72 1011.9
20260502055148 48 337 0.0 0.0 0.00 0.00 0.00 72 1011.9
20260502054847 49 337 0.0 0.0 0.00 0.00 0.00 74 1011.9
20260502054547 48 90 0.0 0.0 0.00 0.00 0.00 74 1011.9
20260502054248 49 90 0.0 0.0 0.00 0.00 0.00 74 1011.9
20260502053947 48 90 0.0 0.0 0.00 0.00 0.00 74 1011.9
20260502053648 48 67 0.0 0.0 0.00 0.00 0.00 73 1012.2
20260502053047 45 67 0.0 0.0 0.00 0.00 0.00 73 1012.2
20260502052748 46 67 0.0 0.0 0.00 0.00 0.00 73 1012.2
20260502052448 45 67 0.0 0.0 0.00 0.00 0.00 74 1012.2
20260502052148 45 90 0.0 0.0 0.00 0.00 0.00 75 1012.2
20260502051847 44 337 0.0 0.0 0.00 0.00 0.00 75 1012.2
20260502051548 44 337 0.0 0.0 0.00 0.00 0.00 76 1012.2
20260502051250 44 90 0.0 0.0 0.00 0.00 0.00 77 1012.2
20260502050948 44 90 0.0 0.0 0.00 0.00 0.00 78 1012.2
20260502050646 43 90 0.0 0.0 0.00 0.00 0.00 78 1012.2
20260502050348 43 135 0.0 0.0 0.00 0.00 0.00 79 1012.2
20260502050047 43 135 0.0 0.0 0.00 0.00 0.00 78 1011.9
20260502045747 42 135 0.0 0.0 0.00 0.00 0.00 77 1012.2
20260502045447 42 337 0.0 0.0 0.00 0.00 0.00 77 1011.9
20260502045150 41 135 0.0 0.0 0.00 0.00 0.00 78 1012.2
20260502044847 41 135 0.0 0.0 0.00 0.00 0.00 78 1011.9
20260502044548 40 135 0.0 0.0 0.00 0.00 0.00 78 1012.2
20260502044247 40 135 0.0 0.0 0.00 0.00 0.00 78 1011.9
20260502043947 38 135 0.0 0.0 0.00 0.00 0.00 77 1011.9
20260502043647 37 337 0.0 0.0 0.00 0.00 0.00 77 1011.9
20260502043347 37 135 0.0 0.0 0.00 0.00 0.00 77 1011.9
20260502042748 36 337 0.0 0.0 0.00 0.00 0.00 78 1011.9
20260502042446 36 180 0.0 0.0 0.00 0.00 0.00 78 1011.9
20260502042147 35 337 0.0 0.0 0.00 0.00 0.00 78 1011.9
20260502041848 35 180 0.0 0.0 0.00 0.00 0.00 77 1011.9
20260502041547 34 180 0.0 0.0 0.00 0.00 0.00 76 1012.2
20260502041248 34 180 0.0 0.0 0.00 0.00 0.00 75 1012.2
20260502040647 34 337 0.0 0.0 0.00 0.00 0.00 76 1012.2
20260502040346 34 180 0.0 0.0 0.00 0.00 0.00 75 1012.2
20260502040047 33 337 0.0 0.0 0.00 0.00 0.00 75 1012.2
20260502035748 34 180 0.0 0.0 0.00 0.00 0.00 76 1012.2
20260502035448 34 180 0.0 0.0 0.00 0.00 0.00 76 1012.2
20260502035150 34 180 0.0 0.0 0.00 0.00 0.00 75 1012.2
20260502034847 34 180 0.0 0.0 0.00 0.00 0.00 75 1012.2
20260502034548 33 180 0.0 0.0 0.00 0.00 0.00 75 1012.2
20260502034246 34 180 0.0 0.0 0.00 0.00 0.00 75 1012.2
20260502033947 34 337 0.0 0.0 0.00 0.00 0.00 75 1012.2
20260502033650 34 180 0.0 0.0 0.00 0.00 0.00 75 1012.2
20260502033348 34 180 0.0 0.0 0.00 0.00 0.00 75 1012.2
20260502033048 34 180 0.0 0.0 0.00 0.00 0.00 75 1012.2
20260502032747 34 180 0.0 0.0 0.00 0.00 0.00 75 1012.2
20260502032447 33 135 0.0 0.0 0.00 0.00 0.00 75 1012.2
20260502032147 34 135 0.0 0.0 0.00 0.00 0.00 74 1012.2
20260502031847 34 135 0.0 0.0 0.00 0.00 0.00 74 1012.2
20260502031550 34 135 0.0 0.0 0.00 0.00 0.00 75 1012.2
20260502031247 35 135 0.0 0.0 0.00 0.00 0.00 75 1012.2
20260502030947 35 337 0.0 0.0 0.00 0.00 0.00 74 1012.4
20260502030647 34 135 0.0 0.0 0.00 0.00 0.00 74 1012.2
20260502030347 34 135 0.0 0.0 0.00 0.00 0.00 74 1012.2
20260502030047 34 135 0.0 0.0 0.00 0.00 0.00 74 1012.2
20260502025748 35 135 0.0 0.0 0.00 0.00 0.00 75 1012.2
20260502025450 35 135 0.0 0.0 0.00 0.00 0.00 74 1012.2
20260502025148 35 337 0.0 0.0 0.00 0.00 0.00 74 1012.2
20260502024848 35 135 0.0 0.0 0.00 0.00 0.00 75 1012.2
20260502024548 35 135 0.0 0.0 0.00 0.00 0.00 74 1012.2
20260502024248 35 337 0.0 0.0 0.00 0.00 0.00 74 1012.2
20260502023947 35 135 0.0 0.0 0.00 0.00 0.00 74 1012.4
20260502023347 36 135 0.0 0.0 0.00 0.00 0.00 74 1012.2
20260502023047 36 337 0.0 0.0 0.00 0.00 0.00 74 1012.2
20260502022748 36 135 0.0 0.0 0.00 0.00 0.00 74 1012.2
20260502022448 35 135 0.0 0.0 0.00 0.00 0.00 73 1012.2
20260502022147 35 337 0.0 0.0 0.00 0.00 0.00 74 1012.4
20260502021847 36 135 0.0 0.0 0.00 0.00 0.00 74 1012.2
20260502021247 36 337 0.0 0.0 0.00 0.00 0.00 74 1012.2
20260502020948 36 135 0.0 0.0 0.00 0.00 0.00 72 1012.2
20260502020648 36 135 0.0 0.0 0.00 0.00 0.00 73 1012.2
20260502020348 37 135 0.0 0.0 0.00 0.00 0.00 72 1012.2
20260502020046 37 135 0.0 0.0 0.00 0.00 0.00 72 1012.4
20260502015747 36 135 0.0 0.0 0.00 0.00 0.00 72 1012.4
20260502015146 36 135 0.0 0.0 0.00 0.00 0.00 72 1012.4
20260502014848 36 135 0.0 0.0 0.00 0.00 0.00 72 1012.2
20260502014547 36 135 0.0 0.0 0.00 0.00 0.00 72 1012.2
20260502014248 36 135 0.0 0.0 0.00 0.00 0.00 72 1012.2
20260502013947 36 135 0.0 0.0 0.00 0.00 0.00 72 1012.2
20260502013647 37 135 0.0 0.0 0.00 0.00 0.00 72 1012.4
20260502013048 36 135 0.0 0.0 0.00 0.00 0.00 72 1012.4
20260502012748 36 135 0.0 0.0 0.00 0.00 0.00 73 1012.7
20260502012448 36 337 0.0 0.0 0.00 0.00 0.00 72 1012.7
20260502012148 37 135 0.0 0.0 0.00 0.00 0.00 72 1012.7
20260502011847 36 135 0.0 0.0 0.00 0.00 0.00 71 1012.7
20260502011548 36 337 0.0 0.0 0.00 0.00 0.00 72 1012.7
20260502010948 37 135 0.0 0.0 0.00 0.00 0.00 72 1012.7
20260502010648 37 135 0.0 0.0 0.00 0.00 0.00 71 1012.7
20260502010348 36 135 0.0 0.0 0.00 0.00 0.00 71 1012.7
20260502010046 37 135 0.0 0.0 0.00 0.00 0.00 72 1012.7
20260502005748 37 135 0.0 0.0 0.00 0.00 0.00 71 1012.7
20260502005447 37 337 0.0 0.0 0.00 0.00 0.00 71 1012.7
20260502005150 37 135 0.0 0.0 0.00 0.00 0.00 71 1012.7
20260502004847 37 135 0.0 0.0 0.00 0.00 0.00 71 1012.7
20260502004548 37 180 0.0 0.0 0.00 0.00 0.00 71 1012.7
20260502004247 38 180 0.0 0.0 0.00 0.00 0.00 71 1012.7
20260502003947 38 180 0.0 0.0 0.00 0.00 0.00 70 1012.7
20260502003647 38 180 0.0 0.0 0.00 0.00 0.00 70 1012.9
20260502003347 38 180 0.0 0.0 0.00 0.00 0.00 71 1012.7
20260502002747 38 180 0.0 0.0 0.00 0.00 0.00 70 1012.7
20260502002447 38 135 0.0 0.0 0.00 0.00 0.00 69 1012.7
20260502002148 38 135 0.0 0.0 0.00 0.00 0.00 69 1012.7
20260502001847 39 135 0.0 0.0 0.00 0.00 0.00 70 1012.7
20260502001548 39 157 0.0 0.0 0.00 0.00 0.00 70 1012.7
20260502001247 39 157 0.0 0.0 0.00 0.00 0.00 69 1012.7
20260502000647 39 135 0.0 0.0 0.00 0.00 0.00 69 1012.9
20260502000348 39 337 0.0 0.0 0.00 0.00 0.00 69 1012.7
20260502000046 39 135 0.0 0.0 0.00 0.00 0.00 69 1012.7
20260501235747 39 135 0.0 0.0 0.00 0.00 0.00 69 1012.9
20260501235447 39 135 0.0 0.0 0.00 0.00 0.00 69 1012.9
20260501235147 39 337 0.0 0.0 0.00 0.00 0.00 69 1013.2
20260501234547 39 135 0.0 0.0 0.00 0.00 0.00 69 1013.2
20260501234247 39 337 0.0 0.0 0.00 0.00 0.00 69 1013.2
20260501233947 39 135 0.0 0.0 0.00 0.00 0.00 68 1012.9
20260501233648 39 135 0.0 0.0 0.00 0.00 0.00 68 1013.2
20260501233348 39 135 0.0 0.0 0.00 0.00 0.00 66 1013.2
20260501233048 40 135 0.0 0.0 0.00 0.00 0.00 67 1013.2
20260501232750 40 135 0.0 0.0 0.00 0.00 0.00 67 1013.2
20260501232447 40 135 0.0 0.0 0.00 0.00 0.00 67 1013.2
20260501232148 41 135 0.0 0.0 0.00 0.00 0.00 67 1013.2
20260501231847 41 135 0.0 0.0 0.00 0.00 0.00 67 1013.2
20260501231548 41 135 0.0 0.0 0.00 0.00 0.00 67 1013.2
20260501231247 41 135 0.0 0.0 0.00 0.00 0.00 67 1013.2
20260501230948 41 135 0.0 0.0 0.00 0.00 0.00 67 1013.2
20260501230650 41 135 0.0 0.0 0.00 0.00 0.00 67 1013.2
20260501230348 42 135 0.0 0.0 0.00 0.00 0.00 67 1013.2
20260501230047 42 135 0.0 0.0 0.00 0.00 0.00 66 1013.2
20260501225747 42 135 0.0 0.0 0.00 0.00 0.00 66 1013.2
20260501225448 42 135 0.0 0.0 0.00 0.00 0.00 66 1013.2
20260501225150 42 135 0.0 0.0 0.00 0.00 0.00 66 1013.2
20260501224848 43 135 0.0 0.0 0.00 0.00 0.00 66 1013.2
20260501224550 43 157 0.0 0.0 0.00 0.00 0.00 66 1013.2
20260501224247 43 135 0.0 0.0 0.00 0.00 0.00 65 1013.2
20260501223947 43 225 0.0 0.0 0.00 0.00 0.00 65 1013.2
20260501223646 44 225 0.0 0.0 0.00 0.00 0.00 65 1013.2
20260501223346 43 180 0.0 0.0 0.00 0.00 0.00 64 1013.2
20260501223050 43 180 0.0 0.0 0.00 0.00 0.00 64 1013.2
20260501222746 43 180 0.0 0.0 0.00 0.00 0.00 64 1013.2
20260501222447 44 180 0.0 0.0 0.00 0.00 0.00 64 1013.2
20260501222147 45 180 0.0 0.0 0.00 0.00 0.00 64 1013.2
20260501221848 45 180 0.0 0.0 0.00 0.00 0.00 64 1013.4
20260501221547 45 180 0.0 0.0 0.00 0.00 0.00 64 1013.2
20260501221248 45 180 0.0 0.0 0.00 0.00 0.00 64 1013.2
20260501220648 45 337 0.0 0.0 0.00 0.00 0.00 65 1013.2
20260501220347 45 180 0.0 0.0 0.00 0.00 0.00 65 1013.2
20260501220046 45 180 0.0 0.0 0.00 0.00 0.00 64 1013.2
20260501215747 45 157 0.0 0.0 0.00 0.00 0.00 64 1013.4
20260501215450 46 135 0.0 0.0 0.00 0.00 0.00 64 1013.2
20260501215147 46 112 0.0 0.0 0.00 0.00 0.00 64 1013.2
20260501214848 46 112 0.0 0.0 0.00 0.00 0.00 64 1013.2
20260501214548 47 337 0.0 0.0 0.00 0.00 0.00 64 1013.4
20260501214247 46 112 0.0 0.0 0.00 0.00 0.00 64 1013.2
20260501213948 46 112 0.0 0.0 0.00 0.00 0.00 64 1013.2
20260501213648 46 337 0.0 0.0 0.00 0.00 0.00 64 1013.2
20260501213350 46 337 0.0 0.0 0.00 0.00 0.00 65 1013.2
20260501213047 46 337 0.0 0.0 0.00 0.00 0.00 64 1013.2
20260501212748 46 135 0.0 0.0 0.00 0.00 0.00 65 1013.2
20260501212447 46 112 0.0 0.0 0.00 0.00 0.00 64 1013.2
20260501212148 46 112 0.0 0.0 0.00 0.00 0.00 64 1013.2
20260501211848 45 112 0.0 0.0 0.00 0.00 0.00 64 1013.2
20260501211547 45 112 0.0 0.0 0.00 0.00 0.00 64 1013.2
20260501211250 44 112 0.0 0.0 0.00 0.00 0.00 63 1013.2
20260501210947 45 112 0.0 0.0 0.00 0.00 0.00 63 1013.2
20260501210646 45 112 0.0 0.0 0.00 0.00 0.00 63 1013.2
20260501210347 45 90 0.0 0.0 0.00 0.00 0.00 63 1013.2
20260501210047 45 90 0.0 0.0 0.00 0.00 0.00 62 1013.2
20260501205748 45 337 0.0 0.0 0.00 0.00 0.00 62 1013.2
20260501205447 45 90 0.0 0.0 0.00 0.00 0.00 62 1013.2
20260501205150 45 90 0.0 0.0 0.00 0.00 0.00 63 1013.2
20260501204847 45 45 0.0 0.0 0.00 0.00 0.00 62 1013.2
20260501204547 45 337 0.0 0.0 0.00 0.00 0.00 62 1013.2
20260501204247 45 45 0.0 0.0 0.00 0.00 0.00 61 1013.2
20260501203949 45 45 0.0 0.0 0.00 0.00 0.00 61 1013.2
20260501203648 46 337 0.0 0.0 0.00 0.00 0.00 62 1013.2